FW7504 Weather Reports


time (UTC)temp
F
wind
direction
speed
knots
gust
knots
rain 1hr
in
rain 24hr
in
rain mn
in
humidity
%
barometer
mb
20260905072056 78 0 0.0 0.0 0.00 0.00 0.00 84 1015.0
20260905071603 78 0 0.0 0.0 0.00 0.00 0.00 84 1015.0
20260905071053 79 0 0.0 0.0 0.00 0.00 0.00 84 1015.0
20260905070553 79 0 0.0 0.0 0.00 0.00 0.00 84 1015.0
20260905070118 79 0 0.0 0.0 0.00 0.00 0.00 84 1015.1
20260905065552 79 0 0.0 0.0 0.00 0.00 0.00 84 1015.1
20260905065053 79 0 0.0 0.0 0.00 0.00 0.00 84 1015.3
20260905064601 79 0 0.0 0.0 0.00 0.00 0.00 84 1015.3
20260905064053 79 0 0.0 0.0 0.00 0.00 0.00 84 1015.3
20260905063552 79 0 0.0 0.0 0.00 0.00 0.00 84 1015.3
20260905063102 79 0 0.0 0.0 0.00 0.00 0.00 84 1015.2
20260905062552 79 0 0.0 0.0 0.00 0.00 0.00 84 1015.2
20260905062053 79 0 0.0 0.0 0.00 0.00 0.00 83 1015.2
20260905061618 79 0 0.0 0.0 0.00 0.00 0.00 83 1015.3
20260905061054 79 0 0.0 0.0 0.00 0.00 0.00 83 1015.2
20260905060553 79 0 0.0 0.0 0.00 0.00 0.00 83 1015.2
20260905060109 80 0 0.0 0.0 0.00 0.00 0.00 83 1015.4
20260905055554 80 0 0.0 0.9 0.00 0.00 0.00 82 1015.4
20260905055053 80 0 0.0 0.9 0.00 0.00 0.00 82 1015.4
20260905054603 80 0 0.0 1.7 0.00 0.00 0.00 82 1015.5
20260905054052 80 0 0.0 1.7 0.00 0.00 0.00 82 1015.6
20260905053553 80 0 0.0 0.0 0.00 0.00 0.00 82 1015.4
20260905053114 80 0 0.0 0.0 0.00 0.00 0.00 82 1015.5
20260905052555 80 0 0.0 0.0 0.00 0.00 0.00 82 1015.5
20260905052056 80 0 0.0 0.0 0.00 0.00 0.00 82 1015.4
20260905051559 80 0 0.0 0.0 0.00 0.00 0.00 82 1015.5
20260905051117 80 0 0.0 0.0 0.00 0.00 0.00 82 1015.5
20260905050553 80 0 0.0 0.0 0.00 0.00 0.00 82 1015.4
20260905050108 80 0 0.0 0.0 0.00 0.00 0.00 81 1015.3
20260905045551 80 0 0.0 0.0 0.00 0.00 0.00 81 1015.5
20260905045054 81 0 0.0 0.9 0.00 0.00 0.00 81 1015.5
20260905044603 81 0 0.0 0.9 0.00 0.00 0.00 81 1015.6
20260905044052 81 0 0.0 0.9 0.00 0.00 0.00 80 1015.6
20260905043552 81 0 0.0 0.9 0.00 0.00 0.00 79 1015.7
20260905043106 81 0 0.0 0.9 0.00 0.00 0.00 80 1015.7
20260905042556 81 0 0.0 0.0 0.00 0.00 0.00 79 1015.7
20260905042052 82 0 0.0 0.0 0.00 0.00 0.00 78 1015.7
20260905041603 82 0 0.0 0.0 0.00 0.00 0.00 78 1015.7
20260905041052 82 0 0.0 0.0 0.00 0.00 0.00 77 1015.8
20260905040554 82 0 0.0 0.0 0.00 0.00 0.00 77 1015.7
20260905035553 82 0 0.0 0.0 0.00 0.00 0.00 76 1015.9
20260905035053 82 0 0.0 0.0 0.00 0.00 0.00 75 1016.1
20260905034601 82 0 0.0 0.9 0.00 0.00 0.00 75 1016.1
20260905034054 82 0 0.0 0.9 0.00 0.00 0.00 76 1016.2
20260905033552 83 0 0.0 1.7 0.00 0.00 0.00 75 1016.3
20260905033104 83 0 0.0 2.6 0.00 0.00 0.00 75 1016.4
20260905032552 83 0 0.9 2.6 0.00 0.00 0.00 75 1016.5
20260905032054 83 360 0.0 0.9 0.00 0.00 0.00 74 1016.4
20260905031603 83 0 0.0 0.9 0.00 0.00 0.00 75 1016.4
20260905031054 83 0 0.0 0.9 0.00 0.00 0.00 75 1016.4
20260905030553 84 0 0.0 0.9 0.00 0.00 0.00 74 1016.4
20260905030107 84 0 0.0 0.9 0.00 0.00 0.00 74 1016.4
20260905025552 84 0 0.0 0.0 0.00 0.00 0.00 73 1016.4
20260905025053 84 0 0.0 0.0 0.00 0.00 0.00 72 1016.4
20260905024640 84 0 0.0 0.0 0.00 0.00 0.00 71 1016.5
20260905024057 84 0 0.0 1.7 0.00 0.00 0.00 72 1016.6
20260905023554 84 0 0.0 1.7 0.00 0.00 0.00 72 1016.6
20260905023105 84 0 0.0 1.7 0.00 0.00 0.00 71 1016.5
20260905022552 84 0 0.0 0.0 0.00 0.00 0.00 72 1016.4
20260905022052 84 0 0.0 0.9 0.00 0.00 0.00 73 1016.4
20260905021603 84 0 0.0 0.9 0.00 0.00 0.00 72 1016.5
20260905021052 84 0 0.0 0.9 0.00 0.00 0.00 73 1016.4
20260905020554 85 0 0.0 0.9 0.00 0.00 0.00 73 1016.5
20260905015553 85 0 0.0 0.9 0.00 0.00 0.00 71 1016.4
20260905015055 85 0 0.0 0.9 0.00 0.00 0.00 72 1016.4
20260905014603 85 0 0.0 0.9 0.00 0.00 0.00 72 1016.3
20260905014052 85 0 0.0 0.0 0.00 0.00 0.00 73 1016.3
20260905013553 85 0 0.0 0.0 0.00 0.00 0.00 72 1016.4
20260905013113 85 0 0.0 0.0 0.00 0.00 0.00 72 1016.2
20260905012553 86 0 0.0 0.0 0.00 0.00 0.00 72 1016.3
20260905012054 86 0 0.0 1.7 0.00 0.00 0.00 71 1016.3
20260905011601 86 0 0.0 1.7 0.00 0.00 0.00 71 1016.3
20260905011053 86 0 0.0 1.7 0.00 0.00 0.00 71 1016.1
20260905010553 86 360 0.0 1.7 0.00 0.00 0.00 70 1016.1
20260905010108 86 0 0.0 0.9 0.00 0.00 0.00 70 1016.1
20260905005552 86 0 0.0 0.9 0.00 0.00 0.00 70 1016.2
20260905005053 86 0 0.0 0.0 0.00 0.00 0.00 71 1016.2
20260905004603 87 0 0.0 0.0 0.00 0.00 0.00 72 1016.2
20260905004055 87 0 0.0 0.0 0.00 0.00 0.00 71 1015.8
20260905003552 87 0 0.0 0.0 0.00 0.00 0.00 70 1015.8
20260905003104 88 0 0.0 0.0 0.00 0.00 0.00 69 1015.6
20260905002554 88 0 0.0 0.0 0.00 0.00 0.00 69 1015.6
20260905002054 88 0 0.0 0.0 0.00 0.00 0.00 68 1015.8
20260905001607 88 0 0.0 1.7 0.00 0.00 0.00 68 1015.7
20260905001052 89 0 0.0 1.7 0.00 0.00 0.00 68 1015.8
20260905000553 89 360 0.0 1.7 0.00 0.00 0.00 68 1015.7
20260905000108 89 0 0.0 0.0 0.00 0.00 0.00 67 1015.7
20260904235553 90 0 0.0 0.0 0.00 0.00 0.00 65 1015.7
20260904235052 90 0 0.0 0.0 0.00 0.00 0.00 65 1015.7
20260904234605 90 0 0.0 0.0 0.00 0.00 0.00 64 1015.7
20260904234052 91 0 0.0 0.9 0.00 0.00 0.00 64 1015.7
20260904233552 91 0 0.0 0.9 0.00 0.00 0.00 62 1015.6
20260904233105 92 0 0.0 0.9 0.00 0.00 0.00 62 1015.5
20260904232552 92 0 0.0 1.7 0.00 0.00 0.00 61 1015.4
20260904232052 93 0 0.0 1.7 0.00 0.00 0.00 60 1015.3
20260904231601 93 0 0.0 1.7 0.00 0.00 0.00 59 1015.4
20260904231057 93 0 0.0 1.7 0.00 0.00 0.00 58 1015.3
20260904230550 93 360 0.0 3.5 0.00 0.00 0.00 58 1015.3
20260904230101 93 0 0.9 3.5 0.00 0.00 0.00 58 1015.3
20260904225552 93 0 0.0 1.7 0.00 0.00 0.00 56 1015.3
20260904225052 94 0 0.0 1.7 0.00 0.00 0.00 56 1015.3
20260904224559 94 0 0.0 4.3 0.00 0.00 0.00 55 1015.3
20260904224052 94 0 0.0 4.3 0.00 0.00 0.00 55 1015.2
20260904223552 94 0 0.9 4.3 0.00 0.00 0.00 55 1015.2
20260904223109 94 0 0.0 2.6 0.00 0.00 0.00 54 1015.1
20260904222554 94 360 0.0 2.6 0.00 0.00 0.00 52 1015.2
20260904222053 95 360 0.9 5.2 0.00 0.00 0.00 51 1015.0
20260904221610 95 360 0.9 5.2 0.00 0.00 0.00 51 1015.0
20260904221053 95 360 1.7 5.2 0.00 0.00 0.00 51 1015.0
20260904220552 95 0 1.7 4.3 0.00 0.00 0.00 50 1014.8
20260904220106 95 0 0.9 4.3 0.00 0.00 0.00 50 1014.9
20260904215552 95 0 1.7 4.3 0.00 0.00 0.00 49 1014.7
20260904215053 96 360 1.7 4.3 0.00 0.00 0.00 49 1014.7
20260904214608 96 360 1.7 5.2 0.00 0.00 0.00 49 1014.9
20260904214054 96 360 0.9 7.8 0.00 0.00 0.00 49 1015.0
20260904213552 96 360 3.5 7.8 0.00 0.00 0.00 47 1015.1
20260904213103 97 360 4.3 7.8 0.00 0.00 0.00 48 1015.1
20260904212552 96 360 0.0 2.6 0.00 0.00 0.00 49 1015.1
20260904212053 96 360 0.9 7.0 0.00 0.00 0.00 50 1015.2
20260904211619 96 0 0.9 7.8 0.00 0.00 0.00 50 1015.2
20260904211053 96 0 2.6 7.8 0.00 0.00 0.00 50 1015.3
20260904210555 96 360 2.6 7.8 0.00 0.00 0.00 49 1015.3
20260904205553 95 360 1.7 4.3 0.00 0.00 0.00 49 1015.4
20260904205053 95 360 0.9 7.8 0.00 0.00 0.00 49 1015.4
20260904204602 95 360 2.6 7.8 0.00 0.00 0.00 49 1015.5
20260904204054 95 360 3.5 7.8 0.00 0.00 0.00 49 1015.6
20260904203552 95 360 1.7 7.8 0.00 0.00 0.00 50 1015.6
20260904203103 95 360 2.6 7.8 0.00 0.00 0.00 49 1015.6
20260904202552 95 360 0.9 4.3 0.00 0.00 0.00 51 1015.6
20260904202052 95 360 1.7 4.3 0.00 0.00 0.00 50 1016.0
20260904201604 96 360 0.0 5.2 0.00 0.00 0.00 50 1016.0
20260904201052 96 360 1.7 5.2 0.00 0.00 0.00 51 1016.1
20260904200552 96 360 1.7 11.3 0.00 0.00 0.00 51 1016.0
20260904200106 96 360 5.2 11.3 0.00 0.00 0.00 51 1016.0
20260904195553 96 360 0.9 5.2 0.00 0.00 0.00 51 1016.1
20260904195052 96 360 2.6 5.2 0.00 0.00 0.00 50 1016.3
20260904194604 96 360 0.9 5.2 0.00 0.00 0.00 51 1016.4
20260904194050 95 360 1.7 5.2 0.00 0.00 0.00 51 1016.4
20260904193553 95 360 0.0 3.5 0.00 0.00 0.00 54 1016.3
20260904193102 95 0 0.0 4.3 0.00 0.00 0.00 53 1016.6
20260904192551 95 360 0.9 4.3 0.00 0.00 0.00 54 1016.5
20260904192051 95 360 1.7 4.3 0.00 0.00 0.00 52 1016.7
20260904191602 95 360 0.0 2.6 0.00 0.00 0.00 54 1016.8
20260904191051 95 0 0.0 4.3 0.00 0.00 0.00 54 1016.9
20260904190551 95 360 0.9 4.3 0.00 0.00 0.00 54 1016.9
20260904190104 95 360 0.9 4.3 0.00 0.00 0.00 56 1017.0
20260904185550 95 360 0.0 2.6 0.00 0.00 0.00 58 1017.0
20260904185050 94 360 0.9 1.7 0.00 0.00 0.00 59 1017.1
20260904184607 94 360 0.9 4.3 0.00 0.00 0.00 59 1017.1
20260904184050 94 0 0.9 4.3 0.00 0.00 0.00 58 1017.3
20260904183550 94 360 0.9 4.3 0.00 0.00 0.00 61 1017.3
20260904183100 93 0 0.0 2.6 0.00 0.00 0.00 61 1017.5
20260904182555 93 360 0.0 2.6 0.00 0.00 0.00 61 1017.5
20260904182050 92 360 0.0 2.6 0.00 0.00 0.00 62 1017.6
20260904181601 92 0 0.0 1.7 0.00 0.00 0.00 62 1017.7
20260904181051 92 0 0.0 2.6 0.00 0.00 0.00 62 1017.8
20260904180550 92 0 0.9 2.6 0.00 0.00 0.00 62 1017.8
20260904180110 92 0 0.0 2.6 0.00 0.00 0.00 64 1017.8
20260904175550 92 0 0.0 3.5 0.00 0.00 0.00 61 1017.9
20260904175050 92 0 0.0 4.3 0.00 0.00 0.00 62 1017.9
20260904174604 92 360 0.9 4.3 0.00 0.00 0.00 60 1018.0
20260904174050 92 0 0.0 2.6 0.00 0.00 0.00 61 1017.9
20260904173549 92 0 0.0 1.7 0.00 0.00 0.00 61 1018.0
20260904173103 92 360 0.0 1.7 0.00 0.00 0.00 61 1018.1
20260904172551 92 0 0.0 3.5 0.00 0.00 0.00 62 1018.3
20260904172053 92 360 0.9 3.5 0.00 0.00 0.00 61 1018.2
20260904171602 91 360 0.9 4.3 0.00 0.00 0.00 61 1018.4
20260904171052 91 360 1.7 4.3 0.00 0.00 0.00 61 1018.4
20260904170549 91 360 0.9 4.3 0.00 0.00 0.00 61 1018.5
20260904170130 91 360 0.9 4.3 0.00 0.00 0.00 62 1018.5
20260904165550 90 360 1.7 3.5 0.00 0.00 0.00 63 1018.6
20260904165052 90 360 0.9 4.3 0.00 0.00 0.00 65 1018.7
20260904164605 90 0 0.9 4.3 0.00 0.00 0.00 65 1018.7
20260904164053 90 360 0.9 3.5 0.00 0.00 0.00 65 1018.7
20260904163555 89 360 0.0 3.5 0.00 0.00 0.00 65 1018.7
20260904163106 89 360 0.0 4.3 0.00 0.00 0.00 66 1018.8
20260904162550 89 0 0.0 4.3 0.00 0.00 0.00 65 1018.8
20260904162052 89 360 0.9 3.5 0.00 0.00 0.00 67 1018.9
20260904161603 88 0 0.0 0.9 0.00 0.00 0.00 68 1018.9
20260904161048 88 0 0.0 1.7 0.00 0.00 0.00 68 1019.1
20260904160552 88 360 0.0 2.6 0.00 0.00 0.00 68 1019.1
20260904160105 88 0 0.0 3.5 0.00 0.00 0.00 68 1019.2
20260904155552 88 360 0.0 3.5 0.00 0.00 0.00 68 1019.3
20260904155054 88 360 0.9 3.5 0.00 0.00 0.00 68 1019.3
20260904154607 88 360 0.0 2.6 0.00 0.00 0.00 69 1019.2
20260904154052 88 0 0.0 2.6 0.00 0.00 0.00 69 1019.2
20260904153552 87 0 0.0 2.6 0.00 0.00 0.00 70 1019.2
20260904153107 87 0 0.0 2.6 0.00 0.00 0.00 70 1019.3
20260904152552 87 0 0.0 2.6 0.00 0.00 0.00 71 1019.2
20260904152054 87 0 0.9 2.6 0.00 0.00 0.00 71 1019.2
20260904151603 86 360 0.0 2.6 0.00 0.00 0.00 71 1019.3
20260904151052 86 360 0.0 2.6 0.00 0.00 0.00 71 1019.3
20260904150552 86 360 0.0 3.5 0.00 0.00 0.00 71 1019.3
20260904145552 86 360 0.0 1.7 0.00 0.00 0.00 74 1019.2
20260904145051 85 0 0.0 1.7 0.00 0.00 0.00 74 1019.3
20260904144603 85 360 0.0 2.6 0.00 0.00 0.00 75 1019.3
20260904144056 85 0 0.9 2.6 0.00 0.00 0.00 74 1019.2
20260904143552 84 0 0.0 2.6 0.00 0.00 0.00 75 1019.1
20260904143101 84 360 0.9 2.6 0.00 0.00 0.00 76 1019.1
20260904142553 84 0 0.0 1.7 0.00 0.00 0.00 76 1019.0
20260904142054 84 0 0.0 0.9 0.00 0.00 0.00 75 1019.1
20260904141622 84 0 0.0 1.7 0.00 0.00 0.00 77 1018.9
20260904141053 83 0 0.0 1.7 0.00 0.00 0.00 77 1018.8
20260904140552 83 0 0.0 1.7 0.00 0.00 0.00 77 1018.8
20260904140105 82 0 0.0 1.7 0.00 0.00 0.00 78 1018.7
20260904135556 82 360 0.0 1.7 0.00 0.00 0.00 78 1018.8
20260904135053 81 360 0.0 1.7 0.00 0.00 0.00 79 1018.9
20260904134606 81 0 0.0 1.7 0.00 0.00 0.00 80 1018.9
20260904134052 81 360 0.0 1.7 0.00 0.00 0.00 81 1018.8
20260904133551 80 360 0.0 1.7 0.00 0.00 0.00 81 1018.8
20260904133101 80 0 0.9 1.7 0.00 0.00 0.00 82 1018.8
20260904132553 80 0 0.0 2.6 0.00 0.00 0.00 83 1018.8
20260904132054 79 360 0.9 2.6 0.00 0.00 0.00 83 1018.8
20260904131639 79 0 0.0 1.7 0.00 0.00 0.00 85 1019.0
20260904131052 78 0 0.0 1.7 0.00 0.00 0.00 86 1019.0
20260904130552 78 0 0.0 0.0 0.00 0.00 0.00 87 1018.9
20260904125553 77 0 0.0 0.0 0.00 0.00 0.00 88 1018.9
20260904125050 77 0 0.0 0.0 0.00 0.00 0.00 88 1019.0
20260904124559 77 0 0.0 0.0 0.00 0.00 0.00 89 1018.9
20260904124049 76 0 0.0 0.0 0.00 0.00 0.00 89 1018.8
20260904123549 76 0 0.0 0.0 0.00 0.00 0.00 90 1018.8
20260904123109 76 0 0.0 0.0 0.00 0.00 0.00 90 1018.9
20260904122552 75 0 0.0 0.0 0.00 0.00 0.00 90 1018.8
20260904122054 75 0 0.0 0.9 0.00 0.00 0.00 91 1018.8
20260904121559 75 0 0.0 1.7 0.00 0.00 0.00 91 1018.9
20260904121052 75 0 0.0 1.7 0.00 0.00 0.00 91 1018.9
20260904120555 75 0 0.0 0.0 0.00 0.00 0.00 91 1018.8
20260904120106 75 0 0.0 0.0 0.00 0.00 0.00 91 1018.7
20260904115551 74 0 0.0 0.0 0.00 0.00 0.00 91 1018.8
20260904115052 74 0 0.0 0.9 0.00 0.00 0.00 91 1018.7
20260904114601 74 0 0.0 0.9 0.00 0.00 0.00 91 1018.6
20260904114052 75 0 0.0 0.0 0.00 0.00 0.00 91 1018.6
20260904113552 74 0 0.0 0.0 0.00 0.00 0.00 90 1018.5
20260904113110 75 0 0.0 0.0 0.00 0.00 0.00 90 1018.4
20260904112551 75 0 0.0 0.0 0.00 0.00 0.00 91 1018.6
20260904112051 75 0 0.0 0.0 0.00 0.00 0.00 91 1018.5
20260904111600 75 0 0.0 1.7 0.00 0.00 0.00 90 1018.5
20260904111051 75 0 0.0 1.7 0.00 0.00 0.00 90 1018.4
20260904110552 75 0 0.0 1.7 0.00 0.00 0.00 90 1018.3
20260904110106 75 360 0.0 1.7 0.00 0.00 0.00 90 1018.2
20260904105552 75 0 0.0 0.9 0.00 0.00 0.00 90 1018.1
20260904105053 75 0 0.0 0.9 0.00 0.00 0.00 89 1018.1
20260904104611 75 0 0.0 0.0 0.00 0.00 0.00 89 1018.0
20260904104051 75 0 0.0 0.0 0.00 0.00 0.00 89 1017.9
20260904103552 75 0 0.0 0.0 0.00 0.00 0.00 89 1018.0
20260904103107 75 0 0.0 0.0 0.00 0.00 0.00 89 1017.9
20260904102552 75 0 0.0 0.0 0.00 0.00 0.00 89 1017.9
20260904102052 75 0 0.0 0.0 0.00 0.00 0.00 89 1017.9
20260904101604 75 0 0.0 0.0 0.00 0.00 0.00 90 1018.0
20260904101051 75 0 0.0 0.0 0.00 0.00 0.00 89 1017.9
20260904100552 75 0 0.0 0.0 0.00 0.00 0.00 89 1017.9
20260904100059 75 0 0.0 0.0 0.00 0.00 0.00 89 1017.9
20260904095553 75 0 0.0 0.0 0.00 0.00 0.00 89 1017.9
20260904095052 75 0 0.0 0.0 0.00 0.00 0.00 89 1017.7
20260904094602 76 0 0.0 0.0 0.00 0.00 0.00 89 1017.8
20260904094051 76 0 0.0 0.0 0.00 0.00 0.00 89 1017.7
20260904093551 76 0 0.0 0.0 0.00 0.00 0.00 89 1017.7
20260904093105 76 0 0.0 0.0 0.00 0.00 0.00 89 1017.7
20260904092552 76 0 0.0 0.0 0.00 0.00 0.00 88 1017.7
20260904092052 76 0 0.0 0.0 0.00 0.00 0.00 89 1017.8
20260904091600 76 0 0.0 0.0 0.00 0.00 0.00 89 1017.7
20260904091051 76 0 0.0 0.0 0.00 0.00 0.00 88 1017.7
20260904090548 76 0 0.0 0.0 0.00 0.00 0.00 88 1017.6
20260904085548 76 0 0.0 0.0 0.00 0.00 0.00 88 1017.7
20260904085051 76 0 0.0 0.0 0.00 0.00 0.00 87 1017.8
20260904084601 76 0 0.0 0.0 0.00 0.00 0.00 87 1017.6
20260904084049 76 0 0.0 0.0 0.00 0.00 0.00 87 1017.7
20260904083550 76 0 0.0 0.0 0.00 0.00 0.00 87 1017.6
20260904083110 77 0 0.0 0.0 0.00 0.00 0.00 87 1017.5
20260904082550 77 0 0.0 0.0 0.00 0.00 0.00 87 1017.7
20260904082050 77 0 0.0 0.0 0.00 0.00 0.00 87 1017.6
20260904081559 77 0 0.0 0.0 0.00 0.00 0.00 87 1017.6
20260904081051 77 0 0.0 0.0 0.00 0.00 0.00 86 1017.6
20260904080549 77 0 0.0 0.0 0.00 0.00 0.00 86 1017.5
20260904075549 77 0 0.0 0.9 0.00 0.00 0.00 86 1017.4
20260904075051 77 0 0.0 0.9 0.00 0.00 0.00 86 1017.5
20260904074635 77 0 0.0 0.0 0.00 0.00 0.00 86 1017.3
20260904074049 77 0 0.0 0.0 0.00 0.00 0.00 86 1017.4
20260904073555 77 0 0.0 0.0 0.00 0.00 0.00 86 1017.5
20260904073103 77 0 0.0 0.0 0.00 0.00 0.00 86 1017.5
20260904072554 78 0 0.0 0.0 0.00 0.00 0.00 85 1017.4